When you browse on this site, cookies collect data to enhance your experience and personalize the content and advertising you see.
Visit our Privacy Policy to learn more. By continuing to use the site, you agree to this use of cookies and data.
  • In Sweden
  • List of Countries
  • For 7 days
  • Water Temperature
  • Satellite Maps
  • Weather Map
  • Weather Widgets
  • user-avatar
    Login

    Hourly Weather Staraya Nyavka

    Today, 25 May, Saturday

    Time Temperature Precipitation Wind Pressure Humidity
    00:00 +7°C° 0 mm 3 mps 745 mmHg 77%
    01:00 +5°C° 0 mm 4 mps 745 mmHg 77%
    02:00 +5°C° 0 mm 4 mps 746 mmHg 77%
    03:00 +5°C° 0 mm 3 mps 745 mmHg 80%
    04:00 +6°C° 0 mm 4 mps 746 mmHg 77%
    05:00 +7°C° 0 mm 5 mps 746 mmHg 74%
    06:00 +7°C° 0 mm 5 mps 746 mmHg 71%
    07:00 +9°C° 0 mm 5 mps 746 mmHg 68%
    08:00 +10°C° 0 mm 6 mps 746 mmHg 65%
    09:00 +13°C° 0 mm 6 mps 746 mmHg 63%
    10:00 +14°C° 0 mm 6 mps 746 mmHg 61%
    11:00 +15°C° 0 mm 6 mps 745 mmHg 59%
    12:00 +16°C° 0 mm 6 mps 745 mmHg 57%
    13:00 +16°C° 0 mm 6 mps 745 mmHg 56%
    14:00 +17°C° 0 mm 6 mps 744 mmHg 56%
    15:00 +17°C° 0 mm 6 mps 744 mmHg 56%
    16:00 +17°C° 0 mm 6 mps 744 mmHg 59%
    17:00 +16°C° 0 mm 5 mps 744 mmHg 63%
    18:00 +16°C° 0 mm 5 mps 743 mmHg 66%
    19:00 +15°C° 0 mm 5 mps 743 mmHg 67%
    20:00 +13°C° 0 mm 5 mps 743 mmHg 68%
    21:00 +12°C° 0 mm 5 mps 743 mmHg 69%
    22:00 +12°C° 0 mm 5 mps 742 mmHg 67%
    23:00 +12°C° 0 mm 5 mps 742 mmHg 65%

    Tomorrow, 26 May, Sunday

    Time Temperature Precipitation Wind Pressure Humidity
    00:00 +11°C° 0 mm 6 mps 742 mmHg 63%
    01:00 +10°C° 0.1 mm 5 mps 742 mmHg 66%
    02:00 +10°C° 0.1 mm 5 mps 742 mmHg 68%
    03:00 +9°C° 0.1 mm 5 mps 741 mmHg 70%
    04:00 +9°C° 0 mm 5 mps 741 mmHg 69%
    05:00 +10°C° 0 mm 5 mps 741 mmHg 68%
    06:00 +10°C° 0 mm 6 mps 741 mmHg 66%
    07:00 +11°C° 0 mm 6 mps 740 mmHg 67%
    08:00 +13°C° 0 mm 6 mps 740 mmHg 68%
    09:00 +15°C° 0 mm 6 mps 740 mmHg 69%
    10:00 +15°C° 0 mm 6 mps 740 mmHg 71%
    11:00 +15°C° 0 mm 6 mps 739 mmHg 73%
    12:00 +16°C° 0 mm 5 mps 739 mmHg 75%
    13:00 +17°C° 0 mm 5 mps 738 mmHg 75%
    14:00 +19°C° 0 mm 5 mps 738 mmHg 74%
    15:00 +19°C° 0 mm 5 mps 738 mmHg 74%
    16:00 +19°C° 0.3 mm 5 mps 737 mmHg 77%
    17:00 +19°C° 0.3 mm 5 mps 737 mmHg 79%
    18:00 +19°C° 0.3 mm 5 mps 737 mmHg 82%
    19:00 +18°C° 0.1 mm 4 mps 736 mmHg 86%
    20:00 +17°C° 0.1 mm 4 mps 736 mmHg 90%
    21:00 +14°C° 0.1 mm 3 mps 736 mmHg 94%
    22:00 +14°C° 0 mm 3 mps 736 mmHg 95%
    23:00 +14°C° 0 mm 3 mps 736 mmHg 96%

    Day after tomorrow, 27 May, Monday

    Time Temperature Precipitation Wind Pressure Humidity
    00:00 +14°C° 0 mm 3 mps 736 mmHg 97%
    01:00 +14°C° 0.1 mm 3 mps 736 mmHg 97%
    02:00 +14°C° 0.1 mm 3 mps 736 mmHg 98%
    03:00 +14°C° 0.1 mm 3 mps 736 mmHg 98%
    04:00 +14°C° 0 mm 3 mps 737 mmHg 97%
    05:00 +14°C° 0 mm 3 mps 737 mmHg 95%
    06:00 +14°C° 0 mm 4 mps 737 mmHg 94%
    07:00 +15°C° 0 mm 4 mps 738 mmHg 90%
    08:00 +18°C° 0 mm 4 mps 739 mmHg 86%
    09:00 +19°C° 0 mm 4 mps 739 mmHg 82%
    10:00 +20°C° 0 mm 5 mps 740 mmHg 75%
    11:00 +21°C° 0 mm 5 mps 740 mmHg 67%
    12:00 +22°C° 0 mm 6 mps 741 mmHg 60%
    13:00 +22°C° 0 mm 6 mps 741 mmHg 59%
    14:00 +22°C° 0 mm 6 mps 741 mmHg 58%
    15:00 +22°C° 0 mm 5 mps 742 mmHg 57%
    16:00 +21°C° 0 mm 5 mps 742 mmHg 61%
    17:00 +21°C° 0 mm 4 mps 742 mmHg 65%
    18:00 +20°C° 0 mm 4 mps 742 mmHg 70%
    19:00 +19°C° 0 mm 3 mps 743 mmHg 74%
    20:00 +17°C° 0 mm 3 mps 743 mmHg 79%
    21:00 +15°C° 0 mm 2 mps 744 mmHg 84%
    22:00 +15°C° 0 mm 2 mps 744 mmHg 86%
    23:00 +14°C° 0 mm 2 mps 744 mmHg 87%

    28 May, Tuesday

    Time Temperature Precipitation Wind Pressure Humidity
    00:00 +14°C° 0 mm 2 mps 745 mmHg 89%
    01:00 +13°C° 0 mm 2 mps 745 mmHg 90%
    02:00 +13°C° 0 mm 2 mps 745 mmHg 91%
    03:00 +13°C° 0 mm 2 mps 745 mmHg 92%
    04:00 +14°C° 0 mm 2 mps 746 mmHg 90%
    05:00 +14°C° 0 mm 2 mps 746 mmHg 88%
    06:00 +15°C° 0 mm 2 mps 746 mmHg 86%
    07:00 +17°C° 0 mm 2 mps 746 mmHg 80%
    08:00 +19°C° 0 mm 3 mps 746 mmHg 74%
    09:00 +21°C° 0 mm 3 mps 747 mmHg 68%
    10:00 +21°C° 0 mm 3 mps 747 mmHg 66%
    11:00 +22°C° 0 mm 4 mps 747 mmHg 64%
    12:00 +23°C° 0 mm 4 mps 747 mmHg 62%
    13:00 +25°C° 0 mm 4 mps 747 mmHg 61%
    14:00 +25°C° 0 mm 4 mps 747 mmHg 60%
    15:00 +26°C° 0 mm 4 mps 747 mmHg 60%
    16:00 +26°C° 0.1 mm 4 mps 747 mmHg 64%
    17:00 +25°C° 0.1 mm 3 mps 747 mmHg 68%
    18:00 +25°C° 0.1 mm 2 mps 747 mmHg 72%
    19:00 +23°C° 0 mm 2 mps 747 mmHg 76%
    20:00 +21°C° 0 mm 2 mps 747 mmHg 81%
    21:00 +19°C° 0 mm 2 mps 747 mmHg 85%
    22:00 +18°C° 0 mm 2 mps 747 mmHg 86%
    23:00 +18°C° 0 mm 2 mps 747 mmHg 88%

    29 May, Wednesday

    Time Temperature Precipitation Wind Pressure Humidity
    00:00 +17°C° 0 mm 2 mps 748 mmHg 89%
    01:00 +17°C° 0 mm 2 mps 748 mmHg 90%
    02:00 +17°C° 0 mm 2 mps 748 mmHg 91%
    03:00 +17°C° 0 mm 2 mps 748 mmHg 92%
    04:00 +17°C° 0 mm 2 mps 748 mmHg 90%
    05:00 +18°C° 0 mm 3 mps 748 mmHg 89%
    06:00 +19°C° 0 mm 3 mps 749 mmHg 87%
    07:00 +20°C° 0 mm 3 mps 749 mmHg 83%
    08:00 +22°C° 0 mm 3 mps 749 mmHg 79%
    09:00 +25°C° 0 mm 3 mps 749 mmHg 75%
    10:00 +26°C° 0.1 mm 4 mps 749 mmHg 71%
    11:00 +27°C° 0.1 mm 4 mps 749 mmHg 67%
    12:00 +28°C° 0.1 mm 4 mps 749 mmHg 63%
    13:00 +28°C° 0 mm 4 mps 749 mmHg 61%
    14:00 +28°C° 0 mm 4 mps 749 mmHg 60%
    15:00 +29°C° 0 mm 4 mps 749 mmHg 59%
    16:00 +28°C° 0 mm 3 mps 749 mmHg 62%
    17:00 +28°C° 0 mm 3 mps 748 mmHg 66%
    18:00 +28°C° 0 mm 2 mps 748 mmHg 69%
    19:00 +26°C° 0.1 mm 2 mps 748 mmHg 74%
    20:00 +24°C° 0.1 mm 2 mps 748 mmHg 79%
    21:00 +21°C° 0.1 mm 3 mps 749 mmHg 84%
    22:00 +21°C° 0 mm 2 mps 749 mmHg 86%
    23:00 +20°C° 0 mm 2 mps 749 mmHg 87%

    30 May, Thursday

    Time Temperature Precipitation Wind Pressure Humidity
    00:00 +20°C° 0 mm 2 mps 749 mmHg 89%
    01:00 +19°C° 0 mm 2 mps 749 mmHg 90%
    02:00 +19°C° 0 mm 2 mps 749 mmHg 90%
    03:00 +19°C° 0 mm 2 mps 749 mmHg 91%
    04:00 +19°C° 0 mm 2 mps 749 mmHg 89%
    05:00 +20°C° 0 mm 3 mps 749 mmHg 86%
    06:00 +20°C° 0 mm 3 mps 750 mmHg 84%
    07:00 +22°C° 0 mm 3 mps 749 mmHg 78%
    08:00 +24°C° 0 mm 3 mps 749 mmHg 73%
    09:00 +26°C° 0 mm 4 mps 749 mmHg 67%
    10:00 +27°C° 0 mm 4 mps 749 mmHg 64%
    11:00 +28°C° 0 mm 5 mps 749 mmHg 60%
    12:00 +28°C° 0 mm 5 mps 749 mmHg 57%
    13:00 +29°C° 0 mm 5 mps 749 mmHg 57%
    14:00 +29°C° 0 mm 5 mps 748 mmHg 56%
    15:00 +29°C° 0 mm 5 mps 748 mmHg 56%
    16:00 +29°C° 0 mm 4 mps 748 mmHg 60%
    17:00 +28°C° 0 mm 4 mps 748 mmHg 65%
    18:00 +28°C° 0 mm 3 mps 748 mmHg 69%
    19:00 +26°C° 0 mm 3 mps 748 mmHg 73%
    20:00 +24°C° 0 mm 3 mps 748 mmHg 76%
    21:00 +22°C° 0 mm 3 mps 748 mmHg 79%
    22:00 +21°C° 0 mm 3 mps 748 mmHg 81%
    23:00 +20°C° 0 mm 2 mps 748 mmHg 82%
    Show more